Home > Weather > Binningen > Past weeks

Flag for Switzerland Weather for the Past 2 Weeks in Binningen, Basel-Land, Switzerland

Now
44 °F

Heavy rain. Low clouds.


Feels Like: 44 °F
Forecast: 40 / 58 °F
Wind: 2 mph from West

Location: Bale-Mulhouse

Current Time: May 2, 2016 at 4:04:22 AM

Latest Report: May 2, 2016 at 3:00 AM


Visibility: 0 mi

Pressure: 30.23 "Hg

Humidity: 98%

Dew Point: 44 °F

Location of BinningenLocation

Historic Weather in Binningen — Graph

°F

Binningen Temperature Yesterday

Maximum temperature yesterday: 49 °F (at 6:00 PM)
Minimum temperature yesterday: 42 °F (at 7:00 AM)
Average temperature yesterday: 45 °F

High & Low Weather Summary for the Past Weeks

 TemperatureHumidityPressure
High69 °F (Apr 21, 6:00 PM)100% (Apr 19, 8:00 AM)30.37 "Hg (Apr 19, 8:00 AM)
Low35 °F (Apr 27, 4:00 AM)38% (Apr 29, 6:00 PM)29.72 "Hg (Apr 26, 7:00 PM)
Average48 °F75%30.02 "Hg
* Reported Apr 17 1:00 PM — May 2 2:00 AM, Binningen, Weather by CustomWeather, © 2016

Note: Actual official high and low records may vary slightly from our data, if they occured in-between our weather recording intervals... More about our weather records

Advertising

Binningen Weather History for the Previous 24 Hours

Scroll right to see more
 ConditionsComfort  
Time TempWeatherWind HumidityBarometerVisibility
2:00 AM
Mon, May 2
44 °FHeavy rain. Low clouds.1 mph96%30.23 "Hg0 mi
12:00 AM46 °FRain. Overcast.3 mph96%30.24 "Hg5 mi
11:00 PM
Sun, May 1
46 °FSprinkles. Overcast.8 mph95%30.22 "Hg5 mi
10:00 PM46 °FOvercast.5 mph95%30.23 "Hg5 mi
9:00 PM46 °FRain showers. Overcast.8 mph93%30.20 "Hg2 mi
8:00 PM47 °FOvercast.8 mph91%30.19 "Hg7 mi
7:00 PM48 °FOvercast.10 mph87%30.16 "Hg7 mi
6:00 PM49 °FOvercast.6 mph86%30.17 "Hg7 mi
5:00 PM47 °FOvercast.9 mph89%30.17 "Hg7 mi
4:00 PM45 °FOvercast.5 mph91%30.17 "Hg6 mi
3:00 PM44 °FOvercast.8 mph92%30.17 "Hg6 mi
2:00 PM44 °FDrizzle. Low clouds.10 mph93%30.15 "Hg2 mi
1:00 PM45 °FLow clouds.9 mph93%30.13 "Hg4 mi
12:00 PM44 °FLight rain. Low clouds.9 mph94%30.12 "Hg7 mi
11:00 AM43 °FLight rain. Low clouds.9 mph93%30.11 "Hg6 mi
10:00 AM43 °FLight rain. Low clouds.7 mph94%30.10 "Hg4 mi
9:00 AM42 °FLight rain. Low clouds.7 mph93%30.09 "Hg6 mi
8:00 AM42 °FRain. Low clouds.7 mph96%30.07 "Hg3 mi
7:00 AM42 °FLight rain. Low clouds.8 mph96%30.05 "Hg5 mi
6:00 AM42 °FDrizzle. Low clouds.12 mph94%30.03 "Hg2 mi
5:00 AM43 °FLow clouds.9 mph95%30.03 "Hg19 mi
Weather by CustomWeather, © 2016

See weather overviewHow to use our weather pages